Hammond, LA

3:09 AM CDT on April 25, 2017 (GMT -0500)
Hammond Municipal

Weather History for KHDC - January, 2013

Change the Weather History Date:

Monday, January 7, 2013

  Actual Average (KMSY) Record (KMSY)
Temperature  
Mean Temperature 48 °F -  
Max Temperature 60 °F 62 °F 83 °F (1982)
Min Temperature 35 °F 44 °F 23 °F (1970)
Degree Days  
Heating Degree Days 18    
Moisture  
Dew Point 42 °F    
Average Humidity 82    
Maximum Humidity 100    
Minimum Humidity 45    
Precipitation  
Precipitation 0.00 in - - ()
Sea Level Pressure  
Sea Level Pressure 30.28 in    
Wind  
Wind Speed 2 mph (ENE)    
Max Wind Speed 9 mph    
Max Gust Speed -    
Visibility 9 miles    
Events      
Averages and records for this station are not official NWS values.
T = Trace of Precipitation, MM = Missing Value Source: NWS Daily Summary

Daily Weather History Graph

Daily Weather History Graph

Search for Another Location

Airport or City:

Trip Planner

Search our weather history database for the weather conditions in past years. The results will help you decide how hot, cold, wet, or windy it might be!

Date:

Astronomy

Jan. 07, 2013 Rise Set
Actual Time 6:59 AM CST 5:16 PM CST
Civil Twilight 6:33 AM CST 5:42 PM CST
Nautical Twilight 6:03 AM CST 6:12 PM CST
Astronomical Twilight 5:34 AM CST 6:41 PM CST
Moon 2:28 AM CST (1/7) 1:24 PM CST (1/7)
Length of Visible Light 11h 09m
Length of Day
10h 16m
Waning Crescent, 22% of the Moon is Illuminated
Jan 7
Waning Crescent
Jan 11
New
Jan 18
First Quarter
Jan 26
Full
Feb 3
Last Quarter

Hourly Weather History & Observations

Time (CST) Temp. Windchill Dew Point Humidity Pressure Visibility Wind Dir Wind Speed Gust Speed Precip Events Conditions
12:15 AM 42.8 °F 41.1 °F 42.8 °F 100% 30.32 in 10.0 mi NE 3.5 mph - N/A   Clear
12:35 AM 42.8 °F - 41.0 °F 93% 30.31 in 10.0 mi Calm Calm - N/A   Clear
12:55 AM 41.0 °F - 41.0 °F 100% 30.31 in 10.0 mi Calm Calm - N/A   Clear
1:15 AM 39.2 °F - 39.2 °F 100% 30.32 in 10.0 mi Calm Calm - N/A   Clear
1:35 AM 41.0 °F - 41.0 °F 100% 30.31 in 10.0 mi Calm Calm - N/A   Clear
1:55 AM 39.2 °F - 39.2 °F 100% 30.31 in 10.0 mi Calm Calm - N/A   Clear
2:15 AM 39.2 °F - 39.2 °F 100% 30.31 in 10.0 mi Calm Calm - N/A   Clear
2:35 AM 39.2 °F 37.0 °F 39.2 °F 100% 30.31 in 10.0 mi North 3.5 mph - N/A   Clear
2:55 AM 37.4 °F - 37.4 °F 100% 30.30 in 7.0 mi Calm Calm - N/A   Clear
3:15 AM 37.4 °F - 37.4 °F 100% 30.31 in 10.0 mi Calm Calm - N/A   Clear
3:35 AM 37.4 °F - 37.4 °F 100% 30.31 in 7.0 mi Calm Calm - N/A   Clear
3:55 AM 37.4 °F - 37.4 °F 100% 30.30 in 5.0 mi Calm Calm - N/A   Clear
4:15 AM 35.6 °F - 35.6 °F 100% 30.30 in 4.0 mi Calm Calm - N/A   Clear
4:35 AM 35.6 °F - 35.6 °F 100% 30.30 in 4.0 mi Calm Calm - N/A   Clear
4:55 AM 35.6 °F - 35.6 °F 100% 30.29 in 5.0 mi Calm Calm - N/A   Clear
5:15 AM 35.6 °F - 35.6 °F 100% 30.30 in 5.0 mi Calm Calm - N/A   Clear
5:35 AM 35.6 °F - 35.6 °F 100% 30.29 in 5.0 mi Calm Calm - N/A   Clear
5:55 AM 35.6 °F 32.8 °F 35.6 °F 100% 30.30 in 7.0 mi North 3.5 mph - N/A   Clear
6:35 AM 35.6 °F - 35.6 °F 100% 30.31 in 7.0 mi Calm Calm - N/A   Clear
6:55 AM 35.6 °F - 35.6 °F 100% 30.32 in 5.0 mi Calm Calm - N/A   Clear
7:15 AM 35.6 °F - 35.6 °F 100% 30.33 in 5.0 mi Calm Calm - N/A   Clear
7:35 AM 35.6 °F - 35.6 °F 100% 30.33 in 5.0 mi Calm Calm - N/A   Clear
7:55 AM 39.2 °F 37.0 °F 39.2 °F 100% 30.33 in 7.0 mi NNE 3.5 mph - N/A   Clear
8:15 AM 39.2 °F 34.2 °F 39.2 °F 100% 30.33 in 10.0 mi NNE 6.9 mph - N/A   Clear
8:35 AM 41.0 °F 39.0 °F 41.0 °F 100% 30.34 in 10.0 mi NE 3.5 mph - N/A   Clear
8:55 AM 44.6 °F 40.2 °F 41.0 °F 87% 30.34 in 10.0 mi ENE 8.1 mph - N/A   Clear
9:15 AM 44.6 °F 40.7 °F 41.0 °F 87% 30.34 in 10.0 mi ENE 6.9 mph - N/A   Clear
9:35 AM 46.4 °F 42.9 °F 41.0 °F 81% 30.35 in 10.0 mi East 6.9 mph - N/A   Clear
9:55 AM 48.2 °F - 41.0 °F 76% 30.35 in 10.0 mi ENE 9.2 mph - N/A   Clear
10:15 AM 50.0 °F - 41.0 °F 71% 30.35 in 10.0 mi ENE 6.9 mph - N/A   Clear
10:35 AM 51.8 °F - 41.0 °F 67% 30.34 in 10.0 mi ENE 8.1 mph - N/A   Clear
10:55 AM 51.8 °F - 41.0 °F 67% 30.33 in 10.0 mi NE 8.1 mph - N/A   Clear
11:15 AM 53.6 °F - 42.8 °F 67% 30.32 in 10.0 mi East 3.5 mph - N/A   Clear
11:35 AM 55.4 °F - 42.8 °F 63% 30.31 in 10.0 mi East 5.8 mph - N/A   Clear
11:55 AM 57.2 °F - 41.0 °F 55% 30.29 in 10.0 mi East 3.5 mph - N/A   Clear
12:15 PM 57.2 °F - 42.8 °F 59% 30.28 in 10.0 mi East 3.5 mph - N/A   Clear
12:35 PM 59.0 °F - 41.0 °F 51% 30.27 in 10.0 mi ESE 4.6 mph - N/A   Clear
1:15 PM 59.0 °F - 41.0 °F 51% 30.25 in 10.0 mi Calm Calm - N/A   Clear
1:35 PM 60.8 °F - 41.0 °F 48% 30.23 in 10.0 mi Calm Calm - N/A   Clear
1:55 PM 60.8 °F - 41.0 °F 48% 30.23 in 10.0 mi Calm Calm - N/A   Clear
2:15 PM 60.8 °F - 41.0 °F 48% 30.23 in 10.0 mi Calm Calm - N/A   Clear
2:35 PM 60.8 °F - 41.0 °F 48% 30.23 in 10.0 mi Calm Calm - N/A   Clear
2:55 PM 60.8 °F - 41.0 °F 48% 30.23 in 10.0 mi Calm Calm - N/A   Mostly Cloudy
3:15 PM 60.8 °F - 39.2 °F 45% 30.23 in 10.0 mi Calm Calm - N/A   Overcast
3:35 PM 60.8 °F - 41.0 °F 48% 30.24 in 10.0 mi Calm Calm - N/A   Overcast
3:55 PM 60.8 °F - 41.0 °F 48% 30.23 in 10.0 mi Calm Calm - N/A   Overcast
4:15 PM 59.0 °F - 42.8 °F 55% 30.23 in 10.0 mi Calm Calm - N/A   Overcast
4:35 PM 59.0 °F - 44.6 °F 59% 30.23 in 10.0 mi Calm Calm - N/A   Overcast
5:15 PM 57.2 °F - 46.4 °F 67% 30.23 in 10.0 mi SE 4.6 mph - N/A   Overcast
5:35 PM 55.4 °F - 46.4 °F 72% 30.23 in 10.0 mi SE 4.6 mph - N/A   Overcast
5:55 PM 53.6 °F - 46.4 °F 77% 30.23 in 10.0 mi SSE 4.6 mph - N/A   Overcast
6:15 PM 53.6 °F - 46.4 °F 77% 30.24 in 10.0 mi Calm Calm - N/A   Overcast
6:35 PM 53.6 °F - 46.4 °F 77% 30.23 in 10.0 mi Calm Calm - N/A   Mostly Cloudy
6:55 PM 51.8 °F - 46.4 °F 82% 30.23 in 10.0 mi Calm Calm - N/A   Scattered Clouds
7:15 PM 50.0 °F - 46.4 °F 87% 30.24 in 10.0 mi Calm Calm - N/A   Clear
7:35 PM 50.0 °F - 46.4 °F 87% 30.24 in 10.0 mi Calm Calm - N/A   Clear
7:55 PM 50.0 °F - 46.4 °F 87% 30.24 in 10.0 mi Calm Calm - N/A   Clear
8:15 PM 48.2 °F - 46.4 °F 93% 30.23 in 10.0 mi Calm Calm - N/A   Mostly Cloudy
8:35 PM 50.0 °F - 46.4 °F 87% 30.23 in 10.0 mi Calm Calm - N/A   Overcast
8:55 PM 48.2 °F - 46.4 °F 93% 30.23 in 10.0 mi Calm Calm - N/A   Overcast
9:35 PM 50.0 °F - 46.4 °F 87% 30.23 in 10.0 mi Calm Calm - N/A   Overcast
9:55 PM 50.0 °F - 48.2 °F 94% 30.23 in 10.0 mi Calm Calm - N/A   Overcast
10:15 PM 48.2 °F - 48.2 °F 100% 30.22 in 10.0 mi Calm Calm - N/A   Overcast
10:35 PM 50.0 °F - 46.4 °F 87% 30.21 in 10.0 mi Calm Calm - N/A   Overcast
10:55 PM 50.0 °F - 46.4 °F 87% 30.21 in 10.0 mi Calm Calm - N/A   Overcast
11:15 PM 50.0 °F - 46.4 °F 87% 30.21 in 10.0 mi Calm Calm - N/A   Overcast
11:35 PM 50.0 °F - 46.4 °F 87% 30.20 in 10.0 mi Calm Calm - N/A   Overcast
11:55 PM 50.0 °F - 46.4 °F 87% 30.21 in 10.0 mi Calm Calm - N/A   Mostly Cloudy